GW3820 Weather Reports


Display with metric or nautical units.
time (UTC)temp
F
wind
direction
speed
MPH
gust
MPH
rain 1hr
in
rain 24hr
in
rain mn
in
humidity
%
barometer
mb
20260508205815 64 253 1.0 2.0 0.00 0.00 0.00 55 1007.2
20260508204835 61 121 2.0 5.0 0.00 0.00 0.00 60 1007.4
20260508203815 61 108 4.0 6.0 0.00 0.00 0.00 59 1007.4
20260508202855 62 93 3.0 8.0 0.00 0.00 0.00 61 1007.6
20260508201815 61 106 3.0 7.0 0.00 0.00 0.00 62 1007.7
20260508200835 60 169 4.0 10.0 0.00 0.00 0.00 61 1007.9
20260508195815 61 123 2.0 4.0 0.00 0.00 0.00 61 1008.2
20260508194815 62 206 3.0 8.0 0.00 0.00 0.00 56 1008.2
20260508193815 63 105 6.0 11.0 0.00 0.00 0.00 59 1008.3
20260508192815 62 109 3.0 8.0 0.00 0.00 0.00 58 1008.6
20260508191815 63 319 1.0 4.0 0.00 0.00 0.00 57 1008.8
20260508190815 64 200 3.0 8.0 0.00 0.00 0.00 53 1008.9
20260508185815 63 268 4.0 7.0 0.00 0.00 0.00 52 1009.0
20260508184815 62 80 2.0 7.0 0.00 0.00 0.00 52 1009.1
20260508183815 65 250 3.0 4.0 0.00 0.00 0.00 51 1009.1
20260508182815 65 97 2.0 6.0 0.00 0.00 0.00 50 1009.3
20260508181815 63 193 3.0 4.0 0.00 0.00 0.00 49 1009.4
20260508180837 63 244 4.0 10.0 0.00 0.00 0.00 47 1009.4
20260508175836 63 228 5.0 8.0 0.00 0.00 0.00 46 1009.6
20260508174838 62 286 5.0 10.0 0.00 0.00 0.00 45 1009.7
20260508173818 63 242 5.0 10.0 0.00 0.00 0.00 44 1009.9
20260508172816 62 158 3.0 8.0 0.00 0.00 0.00 44 1010.2
20260508171817 61 221 8.0 12.0 0.00 0.00 0.00 46 1010.3
20260508170817 61 285 3.0 7.0 0.00 0.00 0.00 49 1010.4
20260508165817 61 93 5.0 9.0 0.00 0.00 0.00 54 1010.5
20260508164818 62 253 1.0 4.0 0.00 0.00 0.00 52 1010.8
20260508163816 60 223 6.0 9.0 0.00 0.00 0.00 51 1011.0
20260508162818 60 270 4.0 8.0 0.00 0.00 0.00 52 1011.1
20260508161817 62 189 3.0 4.0 0.00 0.00 0.00 51 1011.3
20260508160817 60 289 2.0 4.0 0.00 0.00 0.00 51 1011.3
20260508155817 59 327 3.0 8.0 0.00 0.00 0.00 51 1011.3
20260508154817 58 238 2.0 6.0 0.00 0.00 0.00 50 1011.4
20260508153838 59 46 1.0 3.0 0.00 0.00 0.00 54 1011.3
20260508152818 58 310 1.0 5.0 0.00 0.00 0.00 53 1011.2
20260508151816 57 26 6.0 9.0 0.00 0.00 0.00 53 1011.4
20260508150817 58 235 1.0 3.0 0.00 0.00 0.00 54 1011.4
20260508145815 57 94 1.0 4.0 0.00 0.00 0.00 55 1011.5
20260508144815 56 90 2.0 6.0 0.00 0.00 0.00 55 1011.5
20260508143856 56 82 4.0 7.0 0.00 0.00 0.00 56 1011.7
20260508142815 55 272 2.0 3.0 0.00 0.00 0.00 60 1011.8
20260508141815 55 340 1.0 2.0 0.00 0.00 0.00 60 1011.9
20260508140815 54 348 3.0 5.0 0.00 0.00 0.00 63 1011.9
20260508135815 53 342 1.0 6.0 0.00 0.00 0.00 66 1012.0
20260508134835 52 0.0 0.0 0.00 0.00 0.00 65 1012.1
20260508133815 52 28 5.0 8.0 0.00 0.00 0.00 67 1012.0
20260508132815 52 302 2.0 4.0 0.00 0.00 0.00 68 1012.1
20260508131815 52 315 2.0 4.0 0.00 0.00 0.00 69 1012.1
20260508130815 50 196 2.0 4.0 0.00 0.00 0.00 70 1012.1
20260508125815 50 279 3.0 6.0 0.00 0.00 0.00 72 1012.0
20260508124815 50 253 3.0 4.0 0.00 0.00 0.00 74 1012.1
20260508123815 49 3 2.0 4.0 0.00 0.00 0.00 76 1012.0
20260508122815 48 292 2.0 3.0 0.00 0.00 0.00 77 1011.9
20260508121816 47 359 2.0 3.0 0.00 0.00 0.00 81 1011.9
20260508120815 45 0.0 0.0 0.00 0.00 0.00 85 1011.9
20260508115815 44 0.0 0.0 0.00 0.00 0.00 87 1011.9
20260508114856 42 0.0 0.0 0.00 0.00 0.00 88 1011.8
20260508113815 41 0.0 0.0 0.00 0.00 0.00 87 1011.8
20260508112836 40 0.0 0.0 0.00 0.00 0.00 87 1011.6
20260508111835 39 0.0 0.0 0.00 0.00 0.00 86 1011.5
20260508110815 39 0.0 0.0 0.00 0.00 0.00 86 1011.4
20260508105815 39 0.0 0.0 0.00 0.00 0.00 86 1011.2
20260508104815 39 0.0 0.0 0.00 0.00 0.00 85 1011.3
20260508103815 39 0.0 0.0 0.00 0.00 0.00 85 1011.2
20260508102815 39 0.0 0.0 0.00 0.00 0.00 84 1011.2
20260508101815 39 0.0 0.0 0.00 0.00 0.00 84 1011.1
20260508100815 39 0.0 0.0 0.00 0.00 0.00 84 1011.2
20260508095815 39 0.0 0.0 0.00 0.00 0.00 84 1011.2
20260508094836 39 0.0 0.0 0.00 0.00 0.00 84 1011.2
20260508093815 39 0.0 0.0 0.00 0.00 0.00 83 1011.3
20260508092815 40 0.0 0.0 0.00 0.00 0.00 83 1011.2
20260508091815 40 0.0 0.0 0.00 0.00 0.00 83 1011.0
20260508090815 40 0.0 0.0 0.00 0.00 0.00 83 1011.0
20260508085815 41 0.0 0.0 0.00 0.00 0.00 83 1011.0
20260508084815 41 0.0 0.0 0.00 0.00 0.00 83 1011.1
20260508083835 41 0.0 0.0 0.00 0.00 0.00 83 1011.2
20260508082815 41 0.0 0.0 0.00 0.00 0.00 83 1011.2
20260508081836 41 0.0 0.0 0.00 0.00 0.00 84 1011.1
20260508080816 41 0.0 0.0 0.00 0.00 0.00 84 1011.4
20260508075815 41 0.0 0.0 0.00 0.00 0.00 84 1011.3
20260508074815 41 0.0 0.0 0.00 0.00 0.00 84 1011.4
20260508073815 41 0.0 0.0 0.00 0.00 0.00 84 1011.3
20260508072815 41 0.0 0.0 0.00 0.00 0.00 83 1011.3
20260508071815 40 224 0.0 1.0 0.00 0.00 0.00 82 1011.3
20260508070815 40 0.0 2.0 0.00 0.00 0.00 82 1011.2
20260508065816 40 0.0 0.0 0.00 0.00 0.00 81 1011.3
20260508064817 41 0.0 0.0 0.00 0.00 0.00 81 1011.4
20260508063816 41 0.0 0.0 0.00 0.00 0.00 80 1011.4
20260508062818 41 0.0 0.0 0.00 0.00 0.00 80 1011.4
20260508061818 41 0.0 0.0 0.00 0.00 0.00 80 1011.4
20260508060839 42 0.0 0.0 0.00 0.00 0.00 80 1011.4
20260508055858 42 0.0 0.0 0.00 0.00 0.00 80 1011.6
20260508054818 42 0.0 0.0 0.00 0.00 0.00 80 1011.7
20260508053817 42 0.0 0.0 0.00 0.00 0.00 79 1011.7
20260508052818 42 0.0 0.0 0.00 0.00 0.00 78 1011.7
20260508051816 42 0.0 0.0 0.00 0.00 0.00 76 1011.7
20260508050818 43 0.0 0.0 0.00 0.00 0.00 75 1011.7
20260508045818 43 0.0 0.0 0.00 0.00 0.00 74 1011.6
20260508044818 44 0.0 0.0 0.00 0.00 0.00 73 1011.6
20260508043818 45 0.0 0.0 0.00 0.00 0.00 72 1011.6
20260508042815 46 0.0 0.0 0.00 0.00 0.00 70 1011.5
20260508041818 46 184 1.0 3.0 0.00 0.00 0.00 69 1011.7
20260508040818 47 217 0.0 1.0 0.00 0.00 0.00 68 1011.6
20260508035816 48 204 0.0 1.0 0.00 0.00 0.00 67 1011.6
20260508034817 49 175 0.0 3.0 0.00 0.00 0.00 66 1011.8
20260508033818 49 222 2.0 4.0 0.00 0.00 0.00 65 1011.8
20260508032818 50 229 2.0 3.0 0.00 0.00 0.00 65 1011.8
20260508031818 50 255 0.0 3.0 0.00 0.00 0.00 64 1011.9
20260508030835 50 254 1.0 3.0 0.00 0.00 0.00 63 1012.1
20260508025818 51 252 2.0 4.0 0.00 0.00 0.00 63 1012.0
20260508024818 51 257 2.0 3.0 0.00 0.00 0.00 62 1012.0
20260508023836 51 224 5.0 9.0 0.00 0.00 0.00 62 1012.1
20260508022815 51 248 2.0 4.0 0.00 0.00 0.00 61 1012.0
20260508021815 51 251 6.0 11.0 0.00 0.00 0.00 61 1012.0
20260508020836 51 247 2.0 4.0 0.00 0.00 0.00 61 1012.1
20260508015815 50 0.0 0.0 0.00 0.00 0.00 61 1012.0
20260508014816 50 240 3.0 6.0 0.00 0.00 0.00 63 1012.0
20260508013815 50 0.0 0.0 0.00 0.00 0.00 61 1011.8
20260508012815 49 304 3.0 5.0 0.00 0.00 0.00 60 1011.5
20260508011815 49 193 1.0 7.0 0.00 0.00 0.00 58 1011.4
20260508010815 49 0.0 0.0 0.00 0.00 0.00 57 1011.2
20260508005836 49 0.0 0.0 0.00 0.00 0.00 55 1011.1
20260508004816 50 0.0 0.0 0.00 0.00 0.00 53 1011.1
20260508003815 51 0.0 0.0 0.00 0.00 0.00 52 1011.0
20260508002835 52 0.0 0.0 0.00 0.00 0.00 51 1010.9
20260508001816 53 0.0 0.0 0.00 0.00 0.00 47 1011.0
20260508000815 54 261 1.0 3.0 0.00 0.00 0.00 45 1011.0
20260507235815 55 233 3.0 5.0 0.00 0.00 0.00 44 1010.9
20260507234815 55 297 1.0 2.0 0.00 0.00 0.00 42 1010.8
20260507233815 56 285 3.0 8.0 0.00 0.00 0.00 41 1010.9
20260507232856 56 306 3.0 9.0 0.00 0.00 0.00 42 1010.9
20260507231815 56 217 3.0 5.0 0.00 0.00 0.00 41 1011.0
20260507230815 56 229 1.0 2.0 0.00 0.00 0.00 44 1011.0
20260507225835 57 281 2.0 6.0 0.00 0.00 0.00 39 1011.1
20260507224815 57 316 2.0 8.0 0.00 0.00 0.00 38 1011.1
20260507223815 57 338 3.0 5.0 0.00 0.00 0.00 38 1011.1
20260507222835 58 266 5.0 8.0 0.00 0.00 0.00 38 1011.2
20260507221815 57 313 5.0 9.0 0.00 0.00 0.00 39 1011.3
20260507220835 58 332 5.0 8.0 0.00 0.00 0.00 37 1011.4
20260507215815 58 262 3.0 9.0 0.00 0.00 0.00 38 1011.4
20260507214816 58 261 9.0 17.0 0.00 0.00 0.00 39 1011.2
20260507213836 58 277 10.0 14.0 0.00 0.00 0.00 38 1011.2
20260507212816 58 234 3.0 6.0 0.00 0.00 0.00 39 1011.2
20260507211816 57 240 8.0 15.0 0.00 0.00 0.00 39 1011.3
20260507210815 58 234 7.0 12.0 0.00 0.00 0.00 40 1011.3